Simultaneous Nadir Overpasses (SNOs) Predictions

Prediction of SNOs between GOES-16 and NOAA-19 Satellite Orbit:

Table of predicted SNOs for the next 14.0 days since TLE Epoch: 4/20/2024
Index Date Time (GOES-16) GOES-16 Lat,Lon NOAA-19 Lat,Lon Distance(km) Time Diff (sec)
1 04/21/2024 02:03:02 -0.03, -75.20 0.33, -73.52 190.80 80
2 04/23/2024 14:22:29 0.03, -75.22 0.69, -78.16 334.98 80
3 04/24/2024 14:12:54 0.03, -75.22 0.01, -75.18 5.35 80
4 04/25/2024 14:00:40 0.03, -75.23 -0.67, -72.20 345.55 80
5 04/28/2024 02:20:24 -0.02, -75.23 -0.38, -76.91 190.72 80
6 04/29/2024 02:05:29 -0.01, -75.24 0.27, -73.92 149.70 80
7 04/30/2024 01:53:15 -0.01, -75.25 0.98, -70.95 490.20 80
8 05/01/2024 14:24:55 0.01, -75.27 0.75, -78.56 374.98 80
9 05/02/2024 14:12:39 0.00, -75.28 0.10, -75.57 34.06 80
10 05/03/2024 14:03:05 0.00, -75.29 -0.62, -72.60 307.36 80
